This is the latest recevied weather packets stored in our database for station/object EA7BW-10. If no packets are shown the sender has not sent any weather packets the latest 10 day(s).
| Time | Temp. | Humidity | Pressure | Rain* | Wind** | Luminosity | Snow |
|---|---|---|---|---|---|---|---|
| 1777689794 | 17.78° C | 51% | 1012.2 hPa | - | - | - | - |
| 1777688594 | 18.33° C | 50% | 1012.5 hPa | - | - | - | - |
| 1777687394 | 18.33° C | 49% | 1012.6 hPa | - | - | - | - |
| 1777686194 | 18.33° C | 49% | 1012.7 hPa | - | - | - | - |
| 1777685004 | 18.89° C | 49% | 1013 hPa | - | - | - | - |
| 1777683793 | 19.44° C | 48% | 1013.2 hPa | - | - | - | - |
| 1777682593 | 19.44° C | 48% | 1013.3 hPa | - | - | - | - |
| 1777681393 | 19.44° C | 47% | 1013.6 hPa | - | - | - | - |
| 1777680193 | 20° C | 46% | 1013.8 hPa | - | - | - | - |
| 1777678994 | 20.56° C | 46% | 1013.8 hPa | - | - | - | - |
| 1777677793 | 20.56° C | 45% | 1013.7 hPa | - | - | - | - |
| 1777676595 | 21.11° C | 45% | 1013.7 hPa | - | - | - | - |
| 1777675393 | 21.11° C | 45% | 1013.5 hPa | - | - | - | - |
| 1777674193 | 21.11° C | 45% | 1013.4 hPa | - | - | - | - |
| 1777672992 | 21.11° C | 44% | 1013.3 hPa | - | - | - | - |
| 1777671792 | 21.11° C | 44% | 1013.3 hPa | - | - | - | - |
| 1777670592 | 21.67° C | 44% | 1013.2 hPa | - | - | - | - |
| 1777669392 | 22.78° C | 43% | 1012.9 hPa | - | - | - | - |
| 1777668192 | 22.78° C | 43% | 1012.9 hPa | - | - | - | - |
| 1777666992 | 23.33° C | 42% | 1012.7 hPa | - | - | - | - |
| 1777665792 | 23.89° C | 41% | 1012.2 hPa | - | - | - | - |
| 1777664604 | 25° C | 41% | 1011.9 hPa | - | - | - | - |
| 1777664592 | 25° C | 41% | 1011.9 hPa | - | - | - | - |
| 1777663392 | 25.56° C | 40% | 1011.6 hPa | - | - | - | - |
| 1777662192 | 26.67° C | 39% | 1011.4 hPa | - | - | - | - |
* Rain since midnight (hover to see other rain measurements)
** Current wind speed in m/s (hover to see current wind gust speed)